Regional Weather Roundup
Issued by NWS

Home | Current Version | Previous Version | Text Only | Print | Product List | Glossary Off
Versions: 1 2 3 4 5 6 7 8 9 10 11 12 13 14 15 16 17 18 19 20 21 22 23 24 25 26 27 28 29 30 31 32 33 34 35 36 37 38 39 40 41 42 43 44 45 46 47 48 49 50

758
ASUS43 KLSX 200207
RWRMO

WEATHER SUMMARY FOR MISSOURI
NATIONAL WEATHER SERVICE SPRINGFIELD MO
900 PM CDT SAT AUG 19 2017

NOTE: "FAIR" INDICATES FEW OR NO CLOUDS BELOW 12,000 FEET WITH NO
       SIGNIFICANT WEATHER AND/OR OBSTRUCTIONS TO VISIBILITY.
       CURRENT SKY AND/OR WEATHER CONDITIONS ARE NOT AVAILABLE FOR
       CHILLICOTHE AND FARMINGTON.

MOZ001>031-035>038-043-044-053-054-200300-
...NORTHERN AND WESTERN MISSOURI...

CITY           SKY/WX    TMP DP  RH WIND       PRES   REMARKS
KANSAS CTY INT CLEAR     76  70  82 S8        29.91R
KANSAS C DTWN  CLEAR     87  71  58 SE6       29.89S HX  93
LEE`S SUMMIT   CLEAR     80  73  79 SE3       29.92S
ST JOSEPH      CLEAR     79  69  71 SE6       29.90R
CHILLICOTHE      N/A     74  69  85 CALM      29.93R
KIRKSVILLE     CLEAR     69  59  70 SW3       29.94R

$$
MOZ066>068-077>081-088>096-101>105-200300-
...SOUTHWEST MISSOURI...

CITY           SKY/WX    TMP DP  RH WIND       PRES   REMARKS
SPRINGFIELD    MOCLDY    81  75  82 SE5       29.96R
JOPLIN         CLOUDY    83  77  82 SE6       29.94R HX  92
BRANSON        MOCLDY    82  75  78 CALM      29.99R

$$
MOZ032>034-039>042-045>050-055>058-069>072-200300-
...CENTRAL MISSOURI...

CITY           SKY/WX    TMP DP  RH WIND       PRES   REMARKS
COLUMBIA       CLEAR     77  72  84 SW5       29.94R
JEFFERSON CITY CLEAR     77  72  84 E3        29.92R
ROLLA          CLEAR     75  68  78 S3        29.98R
SEDALIA        CLEAR     78  75  90 SE3       29.95R
WHITEMAN AFB   CLEAR     76  76 100 SE5       29.91S
WARRENSBURG    CLEAR     79  70  73 SE3       29.92S
OSAGE BEACH    CLEAR     76  75  97 E3        29.96R

$$
MOZ051-052-059>065-200300-
...EAST CENTRAL MISSOURI...

CITY           SKY/WX    TMP DP  RH WIND       PRES   REMARKS
ST LOUIS INTL  PTCLDY    82  68  62 E5        29.94R
SPIRIT OF STL  CLEAR     77  73  87 CALM      29.92R
ST CHARLES     CLEAR     75  72  90 NE3       29.92R

$$
MOZ072>076-082>087-097>100-106>115-200300-
...SOUTH CENTRAL AND SOUTHEAST MISSOURI...

CITY           SKY/WX    TMP DP  RH WIND       PRES   REMARKS
CAPE GIRARDEAU CLEAR     79  71  76 S5        29.94R
FARMINGTON     CLEAR     77  71  82 MISG      29.97R
POPLAR BLUFF   CLOUDY    80  75  84 S5        29.95R
WEST PLAINS    PTCLDY    76  70  82 CALM      30.00R

$$



USA.gov is the U.S. government's official web portal to all federal, state and local government web resources and services.